Tracking 31027 objects as of 19-Jul-2025
HD Live streaming from Space Station
objects crossing your sky now

STARLINK-3967

Track STARLINK-3967 now!
10-day predictions
STARLINK-3967 is classified as:


NORAD ID: 52636
Int'l Code: 2022-052AQ
Perigee: 546.1 km
Apogee: 547.7 km
Inclination: 53.2 °
Period: 95.4 minutes
Semi major axis: 6917 km
RCS: Unknown
Launch date: May 14, 2022
Source: United States (US)
Launch site: AIR FORCE EASTERN TEST RANGE (AFETR)
Your satellite tracking list
STARLINK-31009
Track 1 satellite(s)




NASA's NSSDC Master Catalog

Two Line Element Set (TLE):
1 52636U 22052AQ  25199.41344300  .00000634  00000-0  57901-4 0  9997
2 52636  53.2161 240.8288 0001151  80.0354 280.0768 15.08835608175628
Source of the keplerian elements: AFSPC